User: anonymous   Login
Location: ?????
(54.9266°N, 38.5527°E)
Time: 19:26:09
(UTC+00:00)
Language:

Cosmos 921 Rocket - Orbit

View from above orbital plane
View from above orbital plane
View from above satellite
View from above satellite

Ground track
Ground track

The orbit data is extracted from the following two-line orbital elements,

1 10096U 77055B   24165.39804252  .00000952  00000-0  98385-4 0  9994
2 10096  75.8322 141.9457 0041437 181.4798 178.6278 14.90349756542023
Epoch (UTC): 13 June 2024 09:33:10
Eccentricity: 0.0041437
inclination: 75.8322°
perigee height: 568 km
apogee height: 626 km
right ascension of ascending node: 141.9457°
argument of perigee: 181.4798°
revolutions per day: 14.90349756
mean anomaly at epoch: 178.6278°
orbit number at epoch: 54202

The dashed part of the orbit path shows where the satellite is in the earth's shadow,  

DLR